Theta_e
347 347 345 346 342 342 339 337 335 334 335 335 334 335 338 340 343 339 340 341 341 342 342 343 344 344 342 342 343 343 344 342 342 343 341 342 340 340 341 339 339 341
346 349 352 345 348 345 337 335 334 334 335 335 335 336 339 339 339 338 339 340 341 339 340 341 343 342 342 342 343 342 339 339 340 344 341 340 340 339 340 339 339 339
344 346 341 339 337 337 338 341 339 337 336 337 336 337 338 342 338 338 337 338 338 339 340 341 342 344 342 342 341 342 340 339 340 339 343 340 340 340 340 340 341 341
341 342 339 335 336 337 338 336 335 339 338 337 336 339 342 341 338 340 344 348 338 339 340 340 342 341 342 341 342 342 340 341 340 341 340 340 342 342 341 343 343 340
336 336 336 336 337 339 336 336 335 335 334 336 337 344 344 337 336 337 338 339 339 338 339 340 339 340 342 341 341 339 342 343 340 340 339 338 339 341 342 342 340 339
336 336 337 337 337 335 336 336 336 334 334 334 337 340 335 337 338 339 339 338 338 339 339 339 339 338 339 340 339 339 339 339 339 338 338 338 337 338 339 340 338 338
334 335 336 337 336 337 336 335 345 344 333 335 339 337 336 337 337 337 337 339 338 345 340 339 338 338 337 339 339 340 339 338 337 337 337 337 339 338 337 338 339 338
335 334 337 337 338 339 336 334 333 335 338 336 334 337 337 338 337 340 341 339 339 340 339 339 339 339 338 339 341 340 338 338 337 338 337 336 335 335 335 335 337 337
335 335 337 337 337 336 336 336 335 337 341 335 336 338 340 338 340 340 340 340 339 340 340 339 339 338 338 339 339 338 337 336 337 337 336 336 335 335 335 335 335 336
335 335 336 337 337 337 338 338 337 339 340 338 339 339 340 343 338 339 339 339 338 339 338 338 338 337 337 338 338 338 337 336 337 336 335 335 335 335 335 335 335 334
336 336 336 337 337 338 338 339 338 340 341 339 339 339 340 338 341 342 340 338 339 338 338 337 337 337 337 337 337 337 337 337 337 336 336 335 335 335 337 338 337 336
336 336 336 337 338 338 338 339 340 341 342 342 339 338 339 338 338 337 342 340 338 338 338 338 337 337 337 337 337 337 337 337 336 336 336 336 336 336 336 336 336 335
336 336 337 337 341 340 340 340 339 339 340 339 343 338 338 338 338 337 340 340 339 338 338 338 338 338 337 337 337 337 337 337 337 336 336 336 336 336 336 336 337 336
336 337 338 338 341 340 340 340 340 339 339 341 343 339 338 338 338 339 339 340 339 339 338 340 338 337 338 339 339 338 338 337 336 337 337 335 335 335 336 336 336 337
338 339 339 341 343 339 339 339 339 339 339 341 343 343 344 342 339 338 338 337 336 336 336 337 337 337 338 341 339 336 336 335 334 334 333 333 333 334 335 335 335 335
338 340 340 340 339 339 338 339 338 339 340 339 338 339 339 341 337 337 336 336 335 335 334 335 336 336 341 337 336 338 337 335 334 334 333 332 332 331 331 332 332 333
339 340 340 340 338 338 338 338 338 340 339 339 338 337 338 340 335 335 335 335 334 334 333 334 335 336 340 336 338 339 339 338 335 333 333 331 330 329 329 330 331 332
339 339 339 338 337 338 338 338 339 339 339 338 337 338 338 334 334 334 334 334 334 333 332 333 334 336 335 337 338 337 338 338 335 332 331 330 330 329 329 330 330 330
339 339 338 338 338 338 339 339 338 338 337 337 338 338 335 334 333 332 332 332 333 331 333 333 330 334 334 335 335 335 335 338 335 333 331 331 330 329 329 329 329 330
338 338 336 336 337 338 337 337 336 336 337 338 338 336 333 332 332 330 329 329 332 333 331 330 330 334 333 332 333 333 333 336 336 333 331 330 329 329 329 329 329 329
336 335 335 336 337 337 337 336 336 336 336 338 335 334 332 332 330 330 331 336 332 330 329 331 330 332 330 332 331 330 331 337 334 331 329 329 329 329 330 329 329 329
336 335 335 336 337 336 335 335 335 335 334 338 335 331 330 330 330 330 330 329 329 328 328 328 329 328 328 329 329 328 333 335 331 329 328 329 329 330 329 329 329 329
336 335 335 335 335 335 334 335 335 334 333 336 329 328 328 328 328 328 330 329 329 330 328 327 328 329 326 327 327 327 333 331 330 329 329 328 328 328 328 328 328 329
336 336 336 335 334 334 334 334 334 333 330 336 330 328 328 327 327 329 329 329 330 329 328 328 330 332 327 325 324 326 332 333 331 328 327 327 327 328 328 328 327 329
336 336 336 335 335 335 335 334 334 333 331 330 329 327 329 327 331 329 328 328 327 328 332 334 332 330 325 324 323 324 329 330 330 328 326 326 326 326 327 326 326 327
335 338 337 336 335 334 334 331 331 331 326 327 327 326 327 326 326 327 325 326 327 328 327 328 326 326 328 322 322 323 325 330 330 327 326 326 326 325 325 326 326 326
Wind_Speed
3 3 3 3 2 2 4 4 3 4 2 2 3 3 3 3 4 5 5 4 4 4 4 4 3 3 2 3 3 3 3 3 2 2 2 2 3 3 3 3 1 0
4 3 2 3 4 4 3 3 4 4 3 3 3 4 3 3 4 5 5 5 4 4 4 4 3 3 3 3 3 3 3 3 3 1 2 4 2 2 2 2 1 0
3 3 4 5 5 5 4 3 4 4 4 5 4 3 3 2 3 3 3 3 3 3 3 3 3 2 2 2 2 3 2 2 3 1 2 2 1 2 1 1 1 1
3 3 4 4 4 5 4 4 3 3 4 4 4 2 1 2 2 3 3 3 3 3 2 2 2 1 1 1 1 1 1 1 1 1 1 0 1 1 1 1 1 1
5 4 4 4 4 4 4 4 4 5 5 4 3 2 3 2 3 3 3 3 4 3 1 0 1 0 1 2 1 2 1 1 1 0 1 2 2 1 2 1 2 3
4 5 5 5 4 5 4 4 4 5 5 5 3 2 3 3 3 2 2 2 2 2 1 0 2 2 2 2 2 3 3 3 2 1 3 4 4 2 2 1 2 2
6 5 5 4 5 4 5 4 3 4 4 4 3 3 3 3 2 2 3 3 2 1 2 2 3 3 2 2 2 2 2 3 3 3 4 4 3 4 2 2 2 3
6 5 5 4 5 4 5 5 5 5 5 4 5 2 3 4 4 2 2 2 1 1 2 2 2 3 3 1 2 3 3 2 3 3 4 4 3 4 5 3 3 4
5 4 4 5 5 4 4 4 4 5 4 5 4 4 3 4 4 3 2 1 1 2 2 3 3 3 2 2 2 3 3 4 3 4 4 4 4 5 5 3 3 4
4 4 5 4 4 4 5 4 5 4 4 5 5 4 4 2 2 2 1 0 1 2 3 3 3 3 3 2 3 3 3 4 4 3 3 4 4 5 5 4 5 4
4 4 4 4 4 4 5 5 5 5 4 5 4 4 3 3 1 0 1 2 2 2 3 3 3 3 4 4 3 2 3 3 4 4 4 4 4 5 5 5 5 5
5 4 5 5 5 4 5 5 5 4 4 3 3 4 2 2 2 0 1 1 2 2 2 3 3 3 3 3 3 3 2 3 3 3 4 4 4 4 4 4 5 6
5 5 5 4 4 4 4 4 4 4 4 4 3 3 3 2 0 1 1 1 1 1 1 2 2 2 2 2 2 2 2 2 3 3 3 3 3 4 4 4 4 5
6 5 5 4 3 4 4 4 4 3 3 2 3 2 1 0 0 1 2 1 2 2 1 1 1 2 2 2 2 2 2 2 2 3 3 4 4 4 3 4 4 4
4 3 3 2 3 3 3 4 4 3 2 2 2 1 1 1 1 1 2 3 2 2 2 1 2 2 2 2 2 4 3 3 4 4 4 5 5 5 5 5 4 4
4 3 3 3 4 4 4 4 3 2 2 3 2 2 2 2 3 2 2 2 1 2 1 1 2 1 2 5 6 4 4 3 3 4 4 4 4 5 5 5 5 5
4 4 3 4 5 4 4 3 3 2 3 3 3 3 4 3 3 3 2 1 1 0 2 2 3 3 6 5 5 8 6 3 3 4 4 4 4 5 5 5 5 5
4 3 4 4 4 5 4 3 3 3 3 3 3 4 3 2 3 2 1 1 1 0 2 3 3 4 6 5 6 7 7 4 2 3 3 4 4 4 4 4 5 5
1 2 3 3 2 2 2 2 2 3 4 3 3 3 3 3 2 2 2 1 1 1 2 3 3 5 5 5 6 6 6 5 2 3 3 4 4 4 4 4 4 4
5 6 6 5 5 5 6 5 5 5 3 1 3 3 3 2 0 1 2 2 1 2 3 3 4 4 6 7 7 6 6 5 3 3 3 4 4 4 4 4 4 4
6 7 6 4 3 4 5 3 1 2 4 3 3 3 1 1 2 3 3 3 3 2 2 4 4 6 7 7 7 7 7 5 3 3 3 4 5 4 4 4 4 4
5 4 4 4 5 4 3 2 3 3 5 4 1 1 0 1 3 3 4 5 4 2 3 4 5 7 7 7 7 7 7 4 4 4 5 5 5 6 5 4 4 4
5 5 3 3 3 3 3 4 5 6 6 2 1 2 3 4 4 4 3 4 5 3 3 4 5 6 7 7 7 8 5 4 5 4 5 5 6 6 6 5 5 5
6 5 3 3 4 7 6 5 5 4 3 2 2 3 4 3 3 4 4 2 3 4 3 4 5 6 8 8 8 8 7 5 4 5 6 6 6 7 6 6 7 12
5 5 5 5 7 6 4 4 4 4 1 1 1 2 3 3 3 4 4 3 3 4 5 5 5 5 8 8 9 9 7 5 5 5 6 7 7 7 6 6 7 8
5 6 5 4 5 4 3 1 1 1 0 1 2 2 3 3 2 2 3 3 3 2 3 4 5 6 7 10 10 10 10 7 5 5 6 7 6 6 7 6 7 7
Wind_Direction
180 193 190 177 148 147 110 115 140 126 196 155 127 145 148 130 132 112 108 114 119 116 113 98 95 119 95 76 79 82 65 69 71 68 74 72 44 30 27 14 54 304
192 189 157 104 95 91 96 128 161 163 178 172 163 146 160 138 127 123 133 128 131 124 115 118 114 98 81 73 55 75 65 70 68 359 56 53 44 64 53 3 27 292
164 145 109 121 118 119 136 161 160 168 145 166 148 160 141 111 106 76 86 94 83 76 73 65 66 65 91 102 105 107 125 74 44 6 71 63 349 61 23 288 94 54
145 126 122 116 128 132 152 123 121 133 122 136 158 167 100 69 66 76 75 78 105 118 127 133 155 193 183 200 182 122 107 185 200 168 86 63 298 337 315 306 317 323
143 126 139 155 139 131 134 115 129 151 155 144 98 66 88 88 101 125 137 157 156 171 88 21 342 46 307 306 348 310 234 246 215 200 74 310 268 270 296 301 333 325
149 159 168 142 147 138 117 117 159 151 155 105 118 94 108 109 110 127 171 145 119 114 95 59 320 329 329 296 297 277 281 291 272 253 284 290 295 285 276 280 279 285
167 157 132 140 134 122 119 133 134 117 107 140 126 95 97 97 96 120 143 145 107 57 37 325 327 324 335 311 273 278 269 275 299 287 286 283 282 294 294 277 268 265
162 146 150 145 120 100 117 114 122 133 143 129 125 145 127 136 130 145 106 74 42 52 342 335 318 302 308 293 319 330 309 271 277 284 278 276 281 280 278 261 252 254
155 150 154 141 128 141 124 133 135 139 141 130 136 134 151 151 173 154 102 86 48 350 330 312 301 296 290 289 274 267 281 289 275 276 266 268 273 265 270 265 254 247
173 158 157 155 146 172 150 161 150 138 139 129 139 145 152 164 145 150 113 109 304 306 287 290 311 303 302 280 270 259 267 271 279 271 266 265 265 275 281 276 269 271
185 173 173 168 173 185 162 152 142 135 137 136 138 138 153 139 129 120 151 184 235 273 294 291 278 281 284 295 296 280 262 266 267 272 273 270 265 265 274 273 272 263
192 187 202 187 188 184 168 157 143 139 143 137 143 159 188 221 227 43 246 273 254 255 266 279 281 282 280 280 287 288 272 265 266 267 272 269 270 264 260 260 263 264
196 201 203 196 188 172 159 147 149 152 150 175 196 174 183 187 315 309 261 235 273 267 292 287 296 283 278 282 290 282 274 273 272 266 264 266 265 266 268 267 259 262
199 201 196 199 178 152 155 159 153 166 186 177 162 165 168 196 188 294 355 7 346 355 316 304 303 314 304 301 294 312 319 305 295 295 299 297 294 286 282 277 276 270
200 208 184 190 132 135 142 173 186 187 159 136 124 97 144 89 75 96 62 41 14 3 355 328 342 319 278 262 313 351 358 331 329 321 315 308 304 301 297 297 297 297
196 191 163 158 139 166 188 196 181 169 157 134 111 99 90 111 101 108 105 111 44 352 338 347 328 290 316 3 350 349 351 339 323 318 308 302 300 302 302 299 297 302
186 193 154 173 185 191 197 175 170 178 135 108 90 96 108 104 104 102 95 183 172 38 350 330 326 307 338 339 326 334 339 324 323 306 308 303 302 300 300 304 306 310
206 170 173 189 181 202 174 161 176 141 118 111 116 125 135 107 110 131 210 239 198 329 302 297 301 303 321 318 327 326 326 321 288 290 289 287 286 291 295 305 306 308
11 162 185 185 228 152 138 92 114 107 126 139 146 162 147 155 159 202 218 252 225 273 302 299 294 299 326 331 324 315 312 319 287 280 287 287 292 296 298 299 301 301
46 56 45 15 13 33 44 25 12 355 317 255 144 166 167 153 207 308 303 294 244 256 285 286 292 309 333 326 324 319 312 315 282 294 296 300 301 293 288 289 292 296
140 139 139 129 84 70 68 68 166 210 243 228 194 178 136 20 314 310 292 279 271 255 292 310 296 316 323 321 322 323 317 316 320 318 314 300 290 282 280 281 282 281
97 105 105 102 97 69 64 40 272 238 229 230 194 357 43 315 262 233 264 278 282 313 323 309 301 310 314 314 317 319 320 320 313 308 299 293 290 283 277 271 265 263
56 55 44 62 71 107 197 221 228 235 233 252 296 285 293 291 294 300 302 303 302 308 307 298 292 296 301 308 312 312 316 298 292 293 289 284 280 277 272 271 264 259
148 166 181 201 180 218 223 216 214 239 245 237 239 287 301 296 289 295 291 270 280 285 270 276 283 289 294 298 299 300 299 291 281 283 280 280 281 278 276 274 273 279
144 168 198 206 229 224 214 206 212 218 292 217 212 248 268 271 293 295 305 301 276 277 283 275 272 285 292 293 297 300 302 297 287 276 281 279 280 283 285 280 279 280
184 195 198 216 222 226 212 252 317 305 324 175 265 246 295 325 311 314 319 306 304 290 289 285 295 293 293 300 302 301 299 292 273 274 274 276 279 281 286 285 285 286